Time,TemperatureF,DewpointF,PressureIn,WindDirection,WindDirectionDegrees,WindSpeedMPH,WindSpeedGustMPH,Humidity,HourlyPrecipIn,Conditions,Clouds,dailyrainin,SoftwareType,DateUTC
2013-05-05 00:01:00,69.1,69.1,29.65,South,181,0.0,0.0,100,0.00,,---,0.00,VWS V14.01,2013-05-05 04:01:00,
2013-05-05 00:06:00,69.3,69.3,29.65,SSE,162,0.0,0.0,100,0.00,,---,0.00,VWS V14.01,2013-05-05 04:06:00,
2013-05-05 00:11:00,69.3,69.3,29.65,SSE,160,0.0,0.0,100,0.00,,---,0.00,VWS V14.01,2013-05-05 04:11:00,
2013-05-05 00:16:00,69.3,69.3,29.65,South,187,0.0,0.0,100,0.00,,---,0.00,VWS V14.01,2013-05-05 04:16:00,
2013-05-05 00:21:00,69.4,69.4,29.65,SSE,162,0.0,0.0,100,0.00,,---,0.00,VWS V14.01,2013-05-05 04:21:00,
2013-05-05 00:26:00,69.4,69.4,29.65,South,190,0.0,0.0,100,0.00,,---,0.00,VWS V14.01,2013-05-05 04:26:00,
2013-05-05 00:31:00,69.4,69.4,29.65,South,170,0.0,0.0,100,0.00,,---,0.00,VWS V14.01,2013-05-05 04:31:00,
2013-05-05 00:36:00,69.4,69.4,29.65,NNE,29,0.0,0.0,100,0.00,,---,0.00,VWS V14.01,2013-05-05 04:36:00,
2013-05-05 00:41:00,69.4,69.4,29.65,SSE,150,0.0,0.0,100,0.00,,---,0.00,VWS V14.01,2013-05-05 04:41:00,
2013-05-05 00:46:00,69.4,69.4,29.65,SSE,151,0.0,0.0,100,0.00,,---,0.00,VWS V14.01,2013-05-05 04:46:00,
2013-05-05 00:51:00,69.3,69.3,29.65,SSE,151,0.0,0.0,100,0.00,,---,0.00,VWS V14.01,2013-05-05 04:51:00,
2013-05-05 00:56:00,69.3,69.3,29.65,SSE,151,0.0,0.0,100,0.00,,---,0.00,VWS V14.01,2013-05-05 04:56:00,
2013-05-05 01:01:00,69.3,69.3,29.65,SSE,151,0.0,0.0,100,0.00,,---,0.00,VWS V14.01,2013-05-05 05:01:00,
2013-05-05 01:06:00,69.3,69.3,29.65,SSE,151,0.0,0.0,100,0.00,,---,0.00,VWS V14.01,2013-05-05 05:06:00,
2013-05-05 01:11:00,69.3,69.3,29.65,SSE,151,0.0,0.0,100,0.00,,---,0.00,VWS V14.01,2013-05-05 05:11:00,
2013-05-05 01:16:00,69.4,69.4,29.65,SSE,151,0.0,0.0,100,0.00,,---,0.00,VWS V14.01,2013-05-05 05:16:00,
2013-05-05 01:21:00,69.4,69.4,29.65,SSE,151,0.0,0.0,100,0.00,,---,0.00,VWS V14.01,2013-05-05 05:21:00,
2013-05-05 01:26:00,69.4,69.4,29.65,SSE,151,0.0,0.0,100,0.00,,---,0.00,VWS V14.01,2013-05-05 05:26:00,
2013-05-05 01:31:00,69.4,69.4,29.65,SSE,151,0.0,0.0,100,0.00,,---,0.00,VWS V14.01,2013-05-05 05:31:00,
2013-05-05 01:36:00,69.4,69.4,29.65,SSE,151,0.0,0.0,100,0.00,,---,0.00,VWS V14.01,2013-05-05 05:36:00,
2013-05-05 01:41:00,69.4,69.4,29.65,SSE,151,0.0,0.0,100,0.00,,---,0.00,VWS V14.01,2013-05-05 05:41:00,
2013-05-05 01:46:00,69.6,69.6,29.62,SSE,162,0.0,0.0,100,0.00,,---,0.00,VWS V14.01,2013-05-05 05:46:00,
2013-05-05 01:51:00,69.6,69.6,29.62,SSE,165,0.0,0.0,100,0.00,,---,0.00,VWS V14.01,2013-05-05 05:51:00,
2013-05-05 01:56:00,69.6,69.6,29.62,SSE,165,0.0,0.0,100,0.00,,---,0.00,VWS V14.01,2013-05-05 05:56:00,
2013-05-05 02:01:00,69.8,69.8,29.62,SSE,165,0.0,0.0,100,0.00,,---,0.00,VWS V14.01,2013-05-05 06:01:00,
2013-05-05 02:06:00,69.8,69.8,29.62,South,175,0.0,0.0,100,0.00,,---,0.00,VWS V14.01,2013-05-05 06:06:00,
2013-05-05 02:11:00,69.8,69.8,29.62,South,174,0.0,0.0,100,0.00,,---,0.00,VWS V14.01,2013-05-05 06:11:00,
2013-05-05 02:16:00,69.6,69.6,29.62,South,174,0.0,0.0,100,0.00,,---,0.00,VWS V14.01,2013-05-05 06:16:00,
2013-05-05 02:21:00,69.3,69.3,29.62,South,189,0.0,0.0,100,0.00,,---,0.00,VWS V14.01,2013-05-05 06:21:00,
2013-05-05 02:26:00,69.1,69.1,29.62,South,179,0.0,0.0,100,0.00,,---,0.00,VWS V14.01,2013-05-05 06:26:00,
2013-05-05 02:31:00,68.9,68.9,29.62,South,179,0.0,0.0,100,0.00,,---,0.00,VWS V14.01,2013-05-05 06:31:00,
2013-05-05 02:36:00,68.7,68.7,29.62,South,179,0.0,0.0,100,0.00,,---,0.00,VWS V14.01,2013-05-05 06:36:00,
2013-05-05 02:41:00,68.5,68.5,29.62,South,179,0.0,0.0,100,0.00,,---,0.00,VWS V14.01,2013-05-05 06:41:00,
2013-05-05 02:46:00,68.4,68.4,29.62,South,179,0.0,0.0,100,0.00,,---,0.00,VWS V14.01,2013-05-05 06:46:00,
2013-05-05 02:51:00,68.4,68.4,29.62,South,179,0.0,0.0,100,0.00,,---,0.00,VWS V14.01,2013-05-05 06:51:00,
2013-05-05 02:57:00,68.4,68.4,29.62,South,171,0.0,0.0,100,0.00,,---,0.00,VWS V14.01,2013-05-05 06:57:00,
2013-05-05 03:02:00,68.2,68.2,29.62,South,176,0.0,0.0,100,0.00,,---,0.00,VWS V14.01,2013-05-05 07:02:00,
2013-05-05 03:07:00,68.0,68.0,29.62,South,186,0.0,0.0,100,0.00,,---,0.00,VWS V14.01,2013-05-05 07:07:00,
2013-05-05 03:12:00,67.6,67.6,29.62,WSW,250,0.0,0.0,100,0.00,,---,0.00,VWS V14.01,2013-05-05 07:12:00,
2013-05-05 03:17:00,67.5,67.5,29.62,SSW,201,0.0,0.0,100,0.00,,---,0.00,VWS V14.01,2013-05-05 07:17:00,
2013-05-05 03:22:00,67.3,67.3,29.62,South,170,0.0,0.0,100,0.00,,---,0.00,VWS V14.01,2013-05-05 07:22:00,
2013-05-05 03:27:00,67.1,67.1,29.62,SW,235,0.0,0.0,100,0.00,,---,0.00,VWS V14.01,2013-05-05 07:27:00,
2013-05-05 03:32:00,66.9,66.9,29.62,SW,217,0.0,0.0,100,0.00,,---,0.00,VWS V14.01,2013-05-05 07:32:00,
2013-05-05 03:37:00,66.7,66.7,29.62,SSW,209,0.0,0.0,100,0.00,,---,0.00,VWS V14.01,2013-05-05 07:37:00,
2013-05-05 03:42:00,66.7,66.7,29.62,SSW,208,0.0,0.0,100,0.00,,---,0.00,VWS V14.01,2013-05-05 07:42:00,
2013-05-05 03:47:00,66.7,66.7,29.62,South,190,0.0,0.0,100,0.00,,---,0.00,VWS V14.01,2013-05-05 07:47:00,
2013-05-05 03:52:00,66.6,66.6,29.62,South,182,0.0,0.0,100,0.00,,---,0.00,VWS V14.01,2013-05-05 07:52:00,
2013-05-05 03:57:00,66.6,66.6,29.62,NW,305,0.0,0.0,100,0.00,,---,0.00,VWS V14.01,2013-05-05 07:57:00,
2013-05-05 04:02:00,66.6,66.6,29.62,WSW,244,0.0,0.0,100,0.00,,---,0.00,VWS V14.01,2013-05-05 08:02:00,
2013-05-05 04:07:00,66.7,66.7,29.62,SW,230,0.0,0.0,100,0.00,,---,0.00,VWS V14.01,2013-05-05 08:07:00,
2013-05-05 04:12:00,66.6,66.6,29.62,WNW,289,0.0,0.0,100,0.00,,---,0.00,VWS V14.01,2013-05-05 08:12:00,
2013-05-05 04:17:00,66.6,66.6,29.62,SW,223,0.0,0.0,100,0.00,,---,0.00,VWS V14.01,2013-05-05 08:17:00,
2013-05-05 04:22:00,66.6,66.6,29.62,WNW,293,0.0,0.0,100,0.00,,---,0.00,VWS V14.01,2013-05-05 08:22:00,
2013-05-05 04:27:00,66.4,66.4,29.62,WNW,303,0.0,0.0,100,0.00,,---,0.00,VWS V14.01,2013-05-05 08:27:00,
2013-05-05 04:32:00,65.8,65.8,29.62,WNW,293,0.0,0.0,100,0.00,,---,0.00,VWS V14.01,2013-05-05 08:32:00,
2013-05-05 04:37:00,65.3,65.3,29.62,South,190,0.0,0.0,100,0.00,,---,0.00,VWS V14.01,2013-05-05 08:37:00,
2013-05-05 04:42:00,64.2,64.2,29.62,West,263,0.0,0.0,100,0.00,,---,0.00,VWS V14.01,2013-05-05 08:42:00,
2013-05-05 04:47:00,63.7,63.7,29.65,West,265,0.0,0.0,100,0.00,,---,0.00,VWS V14.01,2013-05-05 08:47:00,
2013-05-05 04:52:00,63.0,63.0,29.65,WNW,302,0.0,0.0,100,0.00,,---,0.00,VWS V14.01,2013-05-05 08:52:00,
2013-05-05 04:57:00,63.0,63.0,29.65,West,268,0.0,0.0,100,0.00,,---,0.00,VWS V14.01,2013-05-05 08:57:00,
2013-05-05 05:02:00,62.8,62.8,29.65,West,270,0.0,0.0,100,0.00,,---,0.00,VWS V14.01,2013-05-05 09:02:00,
2013-05-05 05:07:00,62.4,62.4,29.65,WSW,251,4.0,4.0,100,0.00,,---,0.00,VWS V14.01,2013-05-05 09:07:00,
2013-05-05 05:12:00,62.1,62.1,29.65,West,272,8.7,8.7,100,0.00,,---,0.00,VWS V14.01,2013-05-05 09:12:00,
2013-05-05 05:17:00,61.9,61.9,29.65,West,281,4.5,4.5,100,0.00,,---,0.00,VWS V14.01,2013-05-05 09:17:00,
2013-05-05 05:22:00,61.7,61.7,29.65,WNW,300,3.1,3.1,100,0.00,,---,0.00,VWS V14.01,2013-05-05 09:22:00,
2013-05-05 05:27:00,61.7,61.7,29.65,WSW,255,4.0,4.0,100,0.00,,---,0.00,VWS V14.01,2013-05-05 09:27:00,
2013-05-05 05:32:00,61.5,61.5,29.65,WSW,257,3.6,3.6,100,0.00,,---,0.00,VWS V14.01,2013-05-05 09:32:00,
2013-05-05 05:37:00,61.3,61.3,29.65,WNW,284,2.2,3.6,100,0.00,,---,0.00,VWS V14.01,2013-05-05 09:37:00,
2013-05-05 05:42:00,61.3,61.3,29.65,West,273,0.0,0.0,100,0.00,,---,0.00,VWS V14.01,2013-05-05 09:42:00,
2013-05-05 05:47:00,61.2,61.2,29.65,WSW,252,0.0,0.0,100,0.00,,---,0.00,VWS V14.01,2013-05-05 09:47:00,
2013-05-05 05:52:00,61.2,61.2,29.65,West,260,0.0,0.0,100,0.00,,---,0.00,VWS V14.01,2013-05-05 09:52:00,
2013-05-05 05:57:00,61.0,61.0,29.65,NW,317,0.0,0.0,100,0.00,,---,0.00,VWS V14.01,2013-05-05 09:57:00,
2013-05-05 06:02:00,61.0,61.0,29.65,South,184,0.0,3.6,100,0.00,,---,0.00,VWS V14.01,2013-05-05 10:02:00,
2013-05-05 06:07:00,60.8,60.8,29.65,SSE,158,0.0,2.7,100,0.00,,---,0.00,VWS V14.01,2013-05-05 10:07:00,
2013-05-05 06:12:00,60.8,60.8,29.65,WNW,302,4.9,4.9,100,0.00,,---,0.00,VWS V14.01,2013-05-05 10:12:00,
2013-05-05 06:17:00,60.4,60.4,29.68,NNE,19,0.0,0.0,100,0.00,,---,0.00,VWS V14.01,2013-05-05 10:17:00,
2013-05-05 06:22:00,60.6,60.6,29.68,NNW,346,2.7,2.7,100,0.00,,---,0.00,VWS V14.01,2013-05-05 10:22:00,
2013-05-05 06:27:00,60.6,60.6,29.68,WNW,289,0.0,0.0,100,0.00,,---,0.00,VWS V14.01,2013-05-05 10:27:00,
2013-05-05 06:32:00,60.6,60.6,29.68,WNW,297,0.0,0.0,100,0.00,,---,0.00,VWS V14.01,2013-05-05 10:32:00,
2013-05-05 06:37:00,60.6,60.6,29.68,WNW,287,0.0,3.1,100,0.00,,---,0.00,VWS V14.01,2013-05-05 10:37:00,
2013-05-05 06:42:00,60.6,60.6,29.68,WSW,257,0.0,2.2,100,0.00,,---,0.00,VWS V14.01,2013-05-05 10:42:00,
2013-05-05 06:47:00,60.8,60.8,29.68,NW,320,3.1,3.1,100,0.00,,---,0.00,VWS V14.01,2013-05-05 10:47:00,
2013-05-05 06:52:00,60.8,60.8,29.68,WNW,295,0.0,0.0,100,0.00,,---,0.00,VWS V14.01,2013-05-05 10:52:00,
2013-05-05 06:57:00,60.8,60.8,29.68,WNW,285,0.0,2.2,100,0.00,,---,0.00,VWS V14.01,2013-05-05 10:57:00,
2013-05-05 07:02:00,60.8,60.8,29.71,NW,305,0.0,0.0,100,0.00,,---,0.00,VWS V14.01,2013-05-05 11:02:00,
2013-05-05 07:07:00,60.8,60.8,29.71,WNW,292,0.0,0.0,100,0.00,,---,0.00,VWS V14.01,2013-05-05 11:07:00,
2013-05-05 07:12:00,60.8,60.8,29.71,WNW,282,0.0,4.0,100,0.00,,---,0.00,VWS V14.01,2013-05-05 11:12:00,
2013-05-05 07:17:00,60.8,60.8,29.71,WNW,301,0.0,2.7,100,0.00,,---,0.00,VWS V14.01,2013-05-05 11:17:00,
2013-05-05 07:22:00,61.0,61.0,29.71,WNW,300,0.0,2.2,100,0.00,,---,0.00,VWS V14.01,2013-05-05 11:22:00,
2013-05-05 07:27:00,61.0,61.0,29.71,SE,138,0.0,3.1,100,0.00,,---,0.00,VWS V14.01,2013-05-05 11:27:00,
2013-05-05 07:32:00,61.0,61.0,29.71,NNW,331,7.2,7.2,100,0.00,,---,0.00,VWS V14.01,2013-05-05 11:32:00,
2013-05-05 07:37:00,61.0,60.9,29.71,West,266,3.1,3.6,100,0.00,,---,0.00,VWS V14.01,2013-05-05 11:37:00,
2013-05-05 07:42:00,60.8,60.7,29.71,NW,311,4.0,4.0,100,0.00,,---,0.00,VWS V14.01,2013-05-05 11:42:00,
2013-05-05 07:47:00,61.0,60.6,29.74,WNW,283,2.2,4.0,99,0.00,,---,0.00,VWS V14.01,2013-05-05 11:47:00,
2013-05-05 07:52:00,61.2,60.8,29.74,WNW,298,0.0,2.2,99,0.00,,---,0.00,VWS V14.01,2013-05-05 11:52:00,
2013-05-05 07:57:00,61.3,61.0,29.74,NNW,327,0.0,0.0,99,0.00,,---,0.00,VWS V14.01,2013-05-05 11:57:00,
2013-05-05 08:02:00,60.8,59.8,29.74,SSW,212,0.0,3.1,97,0.00,,---,0.00,VWS V14.01,2013-05-05 12:02:00,
2013-05-05 08:07:00,61.0,60.0,29.74,WNW,294,0.0,0.0,97,0.00,,---,0.00,VWS V14.01,2013-05-05 12:07:00,
2013-05-05 08:12:00,61.0,60.0,29.74,SW,227,0.0,0.0,97,0.00,,---,0.00,VWS V14.01,2013-05-05 12:12:00,
2013-05-05 08:17:00,61.2,60.2,29.74,West,266,2.7,3.6,97,0.00,,---,0.00,VWS V14.01,2013-05-05 12:17:00,
2013-05-05 08:22:00,61.3,60.4,29.74,NW,321,2.2,2.2,97,0.00,,---,0.00,VWS V14.01,2013-05-05 12:22:00,
2013-05-05 08:27:00,61.5,60.5,29.74,South,171,0.0,2.2,97,0.00,,---,0.00,VWS V14.01,2013-05-05 12:27:00,
2013-05-05 08:33:00,61.3,60.4,29.74,SSW,205,2.2,3.6,97,0.00,,---,0.00,VWS V14.01,2013-05-05 12:33:00,
2013-05-05 08:37:00,61.5,60.5,29.74,WNW,295,0.0,3.1,97,0.00,,---,0.00,VWS V14.01,2013-05-05 12:37:00,
2013-05-05 08:43:00,61.2,59.9,29.74,SW,231,0.0,0.0,96,0.00,,---,0.00,VWS V14.01,2013-05-05 12:43:00,
2013-05-05 08:48:00,61.0,59.4,29.74,West,270,0.0,2.2,94,0.00,,---,0.00,VWS V14.01,2013-05-05 12:48:00,
2013-05-05 08:53:00,60.8,59.2,29.74,NW,304,3.1,3.6,94,0.00,,---,0.00,VWS V14.01,2013-05-05 12:53:00,
2013-05-05 08:58:00,61.2,59.3,29.74,SW,225,0.0,3.1,93,0.00,,---,0.00,VWS V14.01,2013-05-05 12:58:00,
2013-05-05 09:03:00,61.7,60.1,29.77,NW,318,4.5,4.5,94,0.00,,---,0.00,VWS V14.01,2013-05-05 13:03:00,
2013-05-05 09:08:00,62.2,60.3,29.77,SSW,213,0.0,3.1,93,0.00,,---,0.00,VWS V14.01,2013-05-05 13:08:00,
2013-05-05 09:13:00,62.2,58.7,29.77,ESE,120,0.0,0.0,88,0.00,,---,0.00,VWS V14.01,2013-05-05 13:13:00,
2013-05-05 09:18:00,62.6,57.4,29.77,NW,313,2.7,3.1,83,0.00,,---,0.00,VWS V14.01,2013-05-05 13:18:00,
2013-05-05 09:23:00,62.2,55.6,29.77,NW,304,0.0,4.0,79,0.00,,---,0.00,VWS V14.01,2013-05-05 13:23:00,
2013-05-05 09:28:00,62.2,58.0,29.77,West,281,0.0,0.0,86,0.00,,---,0.00,VWS V14.01,2013-05-05 13:28:00,
2013-05-05 09:33:00,62.1,58.5,29.77,NW,308,6.3,6.3,88,0.00,,---,0.00,VWS V14.01,2013-05-05 13:33:00,
2013-05-05 09:38:00,61.9,58.4,29.77,WNW,292,2.7,2.7,88,0.00,,---,0.00,VWS V14.01,2013-05-05 13:38:00,
2013-05-05 09:43:00,61.7,58.5,29.77,NNW,332,0.0,0.0,89,0.00,,---,0.00,VWS V14.01,2013-05-05 13:43:00,
2013-05-05 09:48:00,61.5,58.0,29.77,WNW,296,0.0,0.0,88,0.00,,---,0.00,VWS V14.01,2013-05-05 13:48:00,
2013-05-05 09:53:00,61.9,57.7,29.77,WNW,294,0.0,0.0,86,0.00,,---,0.00,VWS V14.01,2013-05-05 13:53:00,
2013-05-05 09:58:00,61.9,54.8,29.77,WNW,287,2.7,5.4,78,0.00,,---,0.00,VWS V14.01,2013-05-05 13:58:00,
2013-05-05 10:03:00,62.6,56.6,29.77,NW,314,2.7,2.7,81,0.00,,---,0.00,VWS V14.01,2013-05-05 14:03:00,
2013-05-05 10:08:00,63.0,55.5,29.77,SSW,202,2.2,2.7,77,0.00,,---,0.00,VWS V14.01,2013-05-05 14:08:00,
2013-05-05 10:13:00,62.4,52.2,29.77,West,276,4.0,9.2,69,0.00,,---,0.00,VWS V14.01,2013-05-05 14:13:00,
2013-05-05 10:18:00,62.6,53.6,29.77,West,266,0.0,0.0,72,0.00,,---,0.00,VWS V14.01,2013-05-05 14:18:00,
2013-05-05 10:23:00,63.0,53.2,29.77,West,261,3.6,4.0,70,0.00,,---,0.00,VWS V14.01,2013-05-05 14:23:00,
2013-05-05 10:28:00,63.0,51.5,29.77,West,280,5.8,5.8,66,0.00,,---,0.00,VWS V14.01,2013-05-05 14:28:00,
2013-05-05 10:33:00,63.3,51.0,29.77,WNW,294,3.1,3.1,64,0.00,,---,0.00,VWS V14.01,2013-05-05 14:33:00,
2013-05-05 10:38:00,63.9,52.4,29.77,NNW,335,2.2,4.9,66,0.00,,---,0.00,VWS V14.01,2013-05-05 14:38:00,
2013-05-05 10:43:00,63.7,50.0,29.77,WSW,238,3.6,3.6,61,0.00,,---,0.00,VWS V14.01,2013-05-05 14:43:00,
2013-05-05 10:48:00,63.3,50.1,29.77,NNW,336,2.2,3.1,62,0.00,,---,0.00,VWS V14.01,2013-05-05 14:48:00,
2013-05-05 10:53:00,63.0,49.3,29.77,West,267,3.1,3.1,61,0.00,,---,0.00,VWS V14.01,2013-05-05 14:53:00,
2013-05-05 10:58:00,62.6,50.7,29.77,WNW,293,6.3,6.3,65,0.00,,---,0.00,VWS V14.01,2013-05-05 14:58:00,
2013-05-05 11:03:00,62.8,50.5,29.77,SSE,152,3.6,5.4,64,0.00,,---,0.00,VWS V14.01,2013-05-05 15:03:00,
2013-05-05 11:08:00,63.1,49.9,29.77,SW,235,2.2,4.0,62,0.00,,---,0.00,VWS V14.01,2013-05-05 15:08:00,
2013-05-05 11:13:00,63.7,50.4,29.77,North,0,2.2,3.1,62,0.00,,---,0.00,VWS V14.01,2013-05-05 15:13:00,
2013-05-05 11:18:00,64.4,50.2,29.77,North,357,5.4,5.4,60,0.00,,---,0.00,VWS V14.01,2013-05-05 15:18:00,
2013-05-05 11:23:00,64.8,48.0,29.77,WNW,302,4.0,4.0,55,0.00,,---,0.00,VWS V14.01,2013-05-05 15:23:00,
2013-05-05 11:28:00,65.1,46.8,29.77,WNW,297,3.6,5.8,51,0.00,,---,0.00,VWS V14.01,2013-05-05 15:28:00,
2013-05-05 11:33:00,65.7,47.3,29.77,WNW,296,2.7,3.6,51,0.00,,---,0.00,VWS V14.01,2013-05-05 15:33:00,
2013-05-05 11:38:00,65.8,44.6,29.77,NW,311,10.1,10.1,46,0.00,,---,0.00,VWS V14.01,2013-05-05 15:38:00,
2013-05-05 11:43:00,66.2,45.0,29.77,WNW,295,9.6,9.6,46,0.00,,---,0.00,VWS V14.01,2013-05-05 15:43:00,
2013-05-05 11:48:00,66.2,40.4,29.77,WNW,299,2.7,2.7,39,0.00,,---,0.00,VWS V14.01,2013-05-05 15:48:00,
2013-05-05 11:53:00,66.9,43.8,29.77,NW,321,3.1,3.1,43,0.00,,---,0.00,VWS V14.01,2013-05-05 15:53:00,
2013-05-05 11:58:00,67.5,45.5,29.77,WNW,290,0.0,0.0,45,0.00,,---,0.00,VWS V14.01,2013-05-05 15:58:00,
2013-05-05 12:03:00,67.8,41.2,29.77,North,353,3.6,5.8,38,0.00,,---,0.00,VWS V14.01,2013-05-05 16:03:00,
2013-05-05 12:08:00,68.5,40.3,29.77,WNW,301,3.1,7.6,36,0.00,,---,0.00,VWS V14.01,2013-05-05 16:08:00,
2013-05-05 12:13:00,69.3,41.7,29.77,WNW,295,2.7,4.0,37,0.00,,---,0.00,VWS V14.01,2013-05-05 16:13:00,
2013-05-05 12:18:00,70.2,41.8,29.77,West,272,5.4,5.4,36,0.00,,---,0.00,VWS V14.01,2013-05-05 16:18:00,
2013-05-05 12:23:00,70.3,41.2,29.77,West,279,2.2,3.1,35,0.00,,---,0.00,VWS V14.01,2013-05-05 16:23:00,
2013-05-05 12:28:00,69.8,39.1,29.77,WSW,254,5.4,5.4,33,0.00,,---,0.00,VWS V14.01,2013-05-05 16:28:00,
2013-05-05 12:33:00,69.6,38.9,29.77,West,281,7.6,10.5,33,0.00,,---,0.00,VWS V14.01,2013-05-05 16:33:00,
2013-05-05 12:38:00,69.8,35.6,29.77,WNW,294,5.8,6.3,28,0.00,,---,0.00,VWS V14.01,2013-05-05 16:38:00,
2013-05-05 12:43:00,70.2,41.0,29.77,West,274,4.0,4.0,35,0.00,,---,0.00,VWS V14.01,2013-05-05 16:43:00,
2013-05-05 12:48:00,70.3,36.0,29.77,SSW,200,3.1,5.4,28,0.00,,---,0.00,VWS V14.01,2013-05-05 16:48:00,
2013-05-05 12:53:00,70.9,37.4,29.77,WNW,299,3.1,4.9,29,0.00,,---,0.00,VWS V14.01,2013-05-05 16:53:00,
2013-05-05 12:58:00,71.2,35.8,29.77,NNW,345,3.6,3.6,27,0.00,,---,0.00,VWS V14.01,2013-05-05 16:58:00,
2013-05-05 13:03:00,71.8,40.0,29.77,NW,319,5.4,8.3,31,0.00,,---,0.00,VWS V14.01,2013-05-05 17:03:00,
2013-05-05 13:08:00,71.8,35.3,29.77,West,268,3.6,4.0,26,0.00,,---,0.00,VWS V14.01,2013-05-05 17:08:00,
2013-05-05 13:13:00,72.1,35.6,29.77,WNW,296,5.4,5.8,26,0.00,,---,0.00,VWS V14.01,2013-05-05 17:13:00,
2013-05-05 13:18:00,72.5,39.7,29.77,NNW,328,5.4,8.1,30,0.00,,---,0.00,VWS V14.01,2013-05-05 17:18:00,
2013-05-05 13:23:00,73.0,34.3,29.77,NW,315,3.1,4.9,24,0.00,,---,0.00,VWS V14.01,2013-05-05 17:23:00,
2013-05-05 13:28:00,73.9,35.1,29.77,WNW,301,5.4,6.3,24,0.00,,---,0.00,VWS V14.01,2013-05-05 17:28:00,
2013-05-05 13:33:00,76.1,35.8,29.74,NNE,20,4.0,5.8,23,0.00,,---,0.00,VWS V14.01,2013-05-05 17:33:00,
2013-05-05 13:38:00,77.9,34.9,29.74,WSW,253,6.3,6.3,21,0.00,,---,0.00,VWS V14.01,2013-05-05 17:38:00,
2013-05-05 13:43:00,76.1,34.6,29.74,WNW,299,3.1,7.6,22,0.00,,---,0.00,VWS V14.01,2013-05-05 17:43:00,
2013-05-05 13:48:00,75.0,33.7,29.74,SSW,209,5.8,9.6,22,0.00,,---,0.00,VWS V14.01,2013-05-05 17:48:00,
2013-05-05 13:53:00,75.2,33.8,29.74,West,277,2.7,7.2,22,0.00,,---,0.00,VWS V14.01,2013-05-05 17:53:00,
2013-05-05 13:58:00,75.7,30.5,29.74,NW,305,5.8,5.8,19,0.00,,---,0.00,VWS V14.01,2013-05-05 17:58:00,
2013-05-05 14:03:00,75.9,35.6,29.74,NNW,338,2.2,3.6,23,0.00,,---,0.00,VWS V14.01,2013-05-05 18:03:00,
2013-05-05 14:08:00,76.8,35.2,29.74,ENE,75,3.6,5.4,22,0.00,,---,0.00,VWS V14.01,2013-05-05 18:08:00,
2013-05-05 14:13:00,76.8,35.2,29.74,NW,310,4.0,4.9,22,0.00,,---,0.00,VWS V14.01,2013-05-05 18:13:00,
2013-05-05 14:19:00,75.7,34.3,29.74,WNW,301,4.9,5.8,22,0.00,,---,0.00,VWS V14.01,2013-05-05 18:19:00,
2013-05-05 14:24:00,75.4,35.2,29.74,WNW,297,2.7,4.0,23,0.00,,---,0.00,VWS V14.01,2013-05-05 18:24:00,
2013-05-05 14:29:00,75.4,34.0,29.74,SSE,165,3.6,3.6,22,0.00,,---,0.00,VWS V14.01,2013-05-05 18:29:00,
2013-05-05 14:34:00,75.2,32.6,29.74,West,277,2.7,5.8,21,0.00,,---,0.00,VWS V14.01,2013-05-05 18:34:00,
2013-05-05 14:39:00,75.2,33.8,29.74,NNE,29,3.1,5.8,22,0.00,,---,0.00,VWS V14.01,2013-05-05 18:39:00,
2013-05-05 14:44:00,75.0,34.8,29.74,West,260,2.7,4.0,23,0.00,,---,0.00,VWS V14.01,2013-05-05 18:44:00,
2013-05-05 14:49:00,75.2,30.0,29.74,WNW,288,0.0,4.0,19,0.00,,---,0.00,VWS V14.01,2013-05-05 18:49:00,
2013-05-05 14:54:00,75.2,33.8,29.74,WNW,298,5.8,5.8,22,0.00,,---,0.00,VWS V14.01,2013-05-05 18:54:00,
2013-05-05 14:59:00,74.8,33.5,29.74,WNW,297,4.0,6.7,22,0.00,,---,0.00,VWS V14.01,2013-05-05 18:59:00,
2013-05-05 15:04:00,75.2,35.0,29.74,NW,312,0.0,4.0,23,0.00,,---,0.00,VWS V14.01,2013-05-05 19:04:00,
2013-05-05 15:09:00,75.2,33.8,29.74,WNW,298,3.1,3.1,22,0.00,,---,0.00,VWS V14.01,2013-05-05 19:09:00,
2013-05-05 15:14:00,75.2,33.8,29.74,West,262,5.8,5.8,22,0.00,,---,0.00,VWS V14.01,2013-05-05 19:14:00,
2013-05-05 15:19:00,75.2,33.8,29.74,NW,306,0.0,2.2,22,0.00,,---,0.00,VWS V14.01,2013-05-05 19:19:00,
2013-05-05 15:24:00,75.0,33.7,29.74,West,279,4.9,4.9,22,0.00,,---,0.00,VWS V14.01,2013-05-05 19:24:00,
2013-05-05 15:29:00,75.0,33.7,29.74,WNW,291,3.1,3.1,22,0.00,,---,0.00,VWS V14.01,2013-05-05 19:29:00,
2013-05-05 15:34:00,75.0,34.8,29.74,West,263,6.3,6.3,23,0.00,,---,0.00,VWS V14.01,2013-05-05 19:34:00,
2013-05-05 15:39:00,75.0,33.7,29.74,WNW,283,0.0,4.5,22,0.00,,---,0.00,VWS V14.01,2013-05-05 19:39:00,
2013-05-05 15:44:00,75.2,33.8,29.74,NW,308,0.0,0.0,22,0.00,,---,0.00,VWS V14.01,2013-05-05 19:44:00,
2013-05-05 15:49:00,75.0,33.7,29.74,NNW,338,5.8,5.8,22,0.00,,---,0.00,VWS V14.01,2013-05-05 19:49:00,
2013-05-05 15:54:00,74.8,34.7,29.74,North,2,2.7,2.7,23,0.00,,---,0.00,VWS V14.01,2013-05-05 19:54:00,
2013-05-05 15:59:00,74.7,34.5,29.74,ESE,117,2.7,4.9,23,0.00,,---,0.00,VWS V14.01,2013-05-05 19:59:00,
2013-05-05 16:04:00,74.8,34.7,29.74,North,357,3.6,7.6,23,0.00,,---,0.00,VWS V14.01,2013-05-05 20:04:00,
2013-05-05 16:09:00,74.7,33.4,29.74,WSW,256,0.0,3.1,22,0.00,,---,0.00,VWS V14.01,2013-05-05 20:09:00,
2013-05-05 16:14:00,74.8,33.5,29.74,NNW,339,3.1,4.0,22,0.00,,---,0.00,VWS V14.01,2013-05-05 20:14:00,
2013-05-05 16:19:00,74.5,33.2,29.74,WSW,242,2.7,4.9,22,0.00,,---,0.00,VWS V14.01,2013-05-05 20:19:00,
2013-05-05 16:24:00,74.8,33.5,29.74,WSW,251,0.0,4.0,22,0.00,,---,0.00,VWS V14.01,2013-05-05 20:24:00,
2013-05-05 16:29:00,75.4,30.2,29.74,SE,140,2.7,2.7,19,0.00,,---,0.00,VWS V14.01,2013-05-05 20:29:00,
2013-05-05 16:34:00,75.2,30.0,29.71,SSW,204,3.1,3.6,19,0.00,,---,0.00,VWS V14.01,2013-05-05 20:34:00,
2013-05-05 16:39:00,75.2,32.6,29.71,North,357,0.0,2.2,21,0.00,,---,0.00,VWS V14.01,2013-05-05 20:39:00,
2013-05-05 16:44:00,75.0,33.7,29.71,NW,312,3.1,4.0,22,0.00,,---,0.00,VWS V14.01,2013-05-05 20:44:00,
2013-05-05 16:49:00,74.8,29.7,29.71,WSW,253,2.2,3.6,19,0.00,,---,0.00,VWS V14.01,2013-05-05 20:49:00,
2013-05-05 16:54:00,75.0,33.7,29.71,West,275,0.0,2.7,22,0.00,,---,0.00,VWS V14.01,2013-05-05 20:54:00,
2013-05-05 16:59:00,74.8,33.5,29.71,South,172,2.7,3.1,22,0.00,,---,0.00,VWS V14.01,2013-05-05 20:59:00,
2013-05-05 17:04:00,74.8,33.5,29.71,NW,325,3.1,6.3,22,0.00,,---,0.00,VWS V14.01,2013-05-05 21:04:00,
2013-05-05 17:09:00,74.8,33.5,29.71,WSW,258,0.0,4.9,22,0.00,,---,0.00,VWS V14.01,2013-05-05 21:09:00,
2013-05-05 17:14:00,75.2,25.6,29.71,WSW,251,3.1,3.1,16,0.00,,---,0.00,VWS V14.01,2013-05-05 21:14:00,
2013-05-05 17:19:00,75.4,30.2,29.71,SSW,208,2.7,2.7,19,0.00,,---,0.00,VWS V14.01,2013-05-05 21:19:00,
2013-05-05 17:24:00,75.4,25.7,29.71,NW,305,3.1,6.3,16,0.00,,---,0.00,VWS V14.01,2013-05-05 21:24:00,
2013-05-05 17:29:00,75.2,25.6,29.71,South,182,2.2,5.4,16,0.00,,---,0.00,VWS V14.01,2013-05-05 21:29:00,
2013-05-05 17:34:00,75.4,30.2,29.71,South,178,3.6,3.6,19,0.00,,---,0.00,VWS V14.01,2013-05-05 21:34:00,
2013-05-05 17:39:00,75.4,30.2,29.71,WNW,283,0.0,0.0,19,0.00,,---,0.00,VWS V14.01,2013-05-05 21:39:00,
2013-05-05 17:44:00,75.0,29.9,29.71,NW,315,5.4,5.4,19,0.00,,---,0.00,VWS V14.01,2013-05-05 21:44:00,
2013-05-05 17:49:00,74.8,29.7,29.71,West,274,3.6,3.6,19,0.00,,---,0.00,VWS V14.01,2013-05-05 21:49:00,
2013-05-05 17:54:00,75.2,25.6,29.71,South,176,0.0,2.2,16,0.00,,---,0.00,VWS V14.01,2013-05-05 21:54:00,
2013-05-05 17:59:00,75.2,30.0,29.71,WSW,254,0.0,0.0,19,0.00,,---,0.00,VWS V14.01,2013-05-05 21:59:00,
2013-05-05 18:04:00,75.0,27.0,29.71,WNW,289,3.1,3.1,17,0.00,,---,0.00,VWS V14.01,2013-05-05 22:04:00,
2013-05-05 18:09:00,75.0,33.7,29.71,SSW,195,0.0,0.0,22,0.00,,---,0.00,VWS V14.01,2013-05-05 22:09:00,
2013-05-05 18:14:00,74.7,33.4,29.71,WSW,256,0.0,2.2,22,0.00,,---,0.00,VWS V14.01,2013-05-05 22:14:00,
2013-05-05 18:19:00,74.5,33.2,29.71,NW,310,3.6,4.0,22,0.00,,---,0.00,VWS V14.01,2013-05-05 22:19:00,
2013-05-05 18:24:00,74.3,26.4,29.71,NNE,12,2.7,3.1,17,0.00,,---,0.00,VWS V14.01,2013-05-05 22:24:00,
2013-05-05 18:29:00,74.1,26.3,29.71,West,261,3.1,3.1,17,0.00,,---,0.00,VWS V14.01,2013-05-05 22:29:00,
2013-05-05 18:34:00,73.8,28.8,29.71,South,183,3.1,3.1,19,0.00,,---,0.00,VWS V14.01,2013-05-05 22:34:00,
2013-05-05 18:39:00,73.4,32.3,29.71,WNW,294,0.0,0.0,22,0.00,,---,0.00,VWS V14.01,2013-05-05 22:39:00,
2013-05-05 18:44:00,72.9,31.9,29.71,WNW,294,2.2,2.2,22,0.00,,---,0.00,VWS V14.01,2013-05-05 22:44:00,
2013-05-05 18:49:00,72.9,31.9,29.71,WNW,300,3.1,4.0,22,0.00,,---,0.00,VWS V14.01,2013-05-05 22:49:00,
2013-05-05 18:54:00,72.7,31.7,29.71,SSW,199,3.1,3.1,22,0.00,,---,0.00,VWS V14.01,2013-05-05 22:54:00,
2013-05-05 18:59:00,72.5,32.7,29.71,West,264,2.2,3.1,23,0.00,,---,0.00,VWS V14.01,2013-05-05 22:59:00,
2013-05-05 19:04:00,72.7,32.9,29.71,WNW,292,0.0,0.0,23,0.00,,---,0.00,VWS V14.01,2013-05-05 23:04:00,
2013-05-05 19:09:00,72.3,33.7,29.71,WNW,291,0.0,0.0,24,0.00,,---,0.00,VWS V14.01,2013-05-05 23:09:00,
2013-05-05 19:14:00,72.0,34.5,29.71,WSW,252,0.0,0.0,25,0.00,,---,0.00,VWS V14.01,2013-05-05 23:14:00,
2013-05-05 19:19:00,72.0,31.1,29.74,WSW,250,0.0,0.0,22,0.00,,---,0.00,VWS V14.01,2013-05-05 23:19:00,
2013-05-05 19:24:00,72.1,32.4,29.74,South,189,0.0,3.6,23,0.00,,---,0.00,VWS V14.01,2013-05-05 23:24:00,
2013-05-05 19:29:00,72.3,29.0,29.74,West,274,2.7,3.6,20,0.00,,---,0.00,VWS V14.01,2013-05-05 23:29:00,
2013-05-05 19:34:00,72.0,32.3,29.74,West,275,0.0,0.0,23,0.00,,---,0.00,VWS V14.01,2013-05-05 23:34:00,
2013-05-05 19:39:00,71.6,32.0,29.74,WSW,257,0.0,0.0,23,0.00,,---,0.00,VWS V14.01,2013-05-05 23:39:00,
2013-05-05 19:44:00,71.2,31.7,29.74,WSW,243,0.0,0.0,23,0.00,,---,0.00,VWS V14.01,2013-05-05 23:44:00,
2013-05-05 19:49:00,70.9,32.5,29.74,WSW,243,0.0,0.0,24,0.00,,---,0.00,VWS V14.01,2013-05-05 23:49:00,
2013-05-05 19:54:00,70.5,32.2,29.74,SW,228,3.1,3.1,24,0.00,,---,0.00,VWS V14.01,2013-05-05 23:54:00,
2013-05-05 19:59:00,70.7,32.3,29.74,SW,225,0.0,0.0,24,0.00,,---,0.00,VWS V14.01,2013-05-05 23:59:00,
2013-05-05 20:04:00,70.7,33.4,29.74,SSW,207,0.0,0.0,25,0.00,,---,0.00,VWS V14.01,2013-05-06 00:04:00,
2013-05-05 20:09:00,70.2,31.9,29.74,SSE,157,0.0,0.0,24,0.00,,---,0.00,VWS V14.01,2013-05-06 00:09:00,
2013-05-05 20:14:00,70.2,31.9,29.74,South,172,2.2,3.1,24,0.00,,---,0.00,VWS V14.01,2013-05-06 00:14:00,
2013-05-05 20:19:00,70.0,31.7,29.74,SSE,163,0.0,0.0,24,0.00,,---,0.00,VWS V14.01,2013-05-06 00:19:00,
2013-05-05 20:24:00,70.2,34.9,29.74,South,170,0.0,0.0,27,0.00,,---,0.00,VWS V14.01,2013-05-06 00:24:00,
2013-05-05 20:29:00,70.0,33.8,29.74,South,171,0.0,0.0,26,0.00,,---,0.00,VWS V14.01,2013-05-06 00:29:00,
2013-05-05 20:34:00,69.3,34.2,29.74,South,171,0.0,0.0,27,0.00,,---,0.00,VWS V14.01,2013-05-06 00:34:00,
2013-05-05 20:39:00,68.5,36.3,29.74,South,171,0.0,0.0,30,0.00,,---,0.00,VWS V14.01,2013-05-06 00:39:00,
2013-05-05 20:44:00,68.0,34.9,29.74,South,170,0.0,0.0,29,0.00,,---,0.00,VWS V14.01,2013-05-06 00:44:00,
2013-05-05 20:49:00,67.6,36.4,29.74,South,170,0.0,0.0,31,0.00,,---,0.00,VWS V14.01,2013-05-06 00:49:00,
2013-05-05 20:54:00,67.3,35.2,29.74,South,170,0.0,0.0,30,0.00,,---,0.00,VWS V14.01,2013-05-06 00:54:00,
2013-05-05 20:59:00,67.1,38.3,29.74,South,171,0.0,0.0,35,0.00,,---,0.00,VWS V14.01,2013-05-06 00:59:00,
2013-05-05 21:04:00,66.9,38.2,29.74,South,170,0.0,0.0,35,0.00,,---,0.00,VWS V14.01,2013-05-06 01:04:00,
2013-05-05 21:09:00,67.5,32.6,29.74,South,178,4.9,5.4,27,0.00,,---,0.00,VWS V14.01,2013-05-06 01:09:00,
2013-05-05 21:14:00,68.7,32.7,29.74,South,191,2.7,4.0,26,0.00,,---,0.00,VWS V14.01,2013-05-06 01:14:00,
2013-05-05 21:19:00,69.1,33.0,29.77,South,179,0.0,3.6,26,0.00,,---,0.00,VWS V14.01,2013-05-06 01:19:00,
2013-05-05 21:24:00,69.1,33.0,29.77,South,183,2.2,2.2,26,0.00,,---,0.00,VWS V14.01,2013-05-06 01:24:00,
2013-05-05 21:29:00,68.7,33.7,29.77,South,181,0.0,0.0,27,0.00,,---,0.00,VWS V14.01,2013-05-06 01:29:00,
2013-05-05 21:34:00,68.4,35.2,29.77,South,182,0.0,2.7,29,0.00,,---,0.00,VWS V14.01,2013-05-06 01:34:00,
2013-05-05 21:39:00,68.0,36.7,29.77,South,182,0.0,0.0,31,0.00,,---,0.00,VWS V14.01,2013-05-06 01:39:00,
2013-05-05 21:44:00,67.8,37.3,29.77,South,182,0.0,0.0,33,0.00,,---,0.00,VWS V14.01,2013-05-06 01:44:00,
2013-05-05 21:49:00,67.6,35.5,29.77,South,187,0.0,3.1,30,0.00,,---,0.00,VWS V14.01,2013-05-06 01:49:00,
2013-05-05 21:54:00,67.6,36.4,29.77,SW,232,0.0,0.0,31,0.00,,---,0.00,VWS V14.01,2013-05-06 01:54:00,
2013-05-05 22:00:00,67.5,36.2,29.77,South,170,3.1,4.0,31,0.00,,---,0.00,VWS V14.01,2013-05-06 02:00:00,
2013-05-05 22:05:00,67.5,36.2,29.77,SSW,200,2.2,3.1,31,0.00,,---,0.00,VWS V14.01,2013-05-06 02:05:00,
2013-05-05 22:10:00,67.3,36.9,29.77,SSW,192,3.1,3.1,33,0.00,,---,0.00,VWS V14.01,2013-05-06 02:10:00,
2013-05-05 22:15:00,67.3,36.9,29.77,West,262,2.7,3.1,33,0.00,,---,0.00,VWS V14.01,2013-05-06 02:15:00,
2013-05-05 22:20:00,67.1,37.5,29.77,South,189,0.0,3.6,34,0.00,,---,0.00,VWS V14.01,2013-05-06 02:20:00,
2013-05-05 22:25:00,66.7,38.0,29.77,SSE,157,2.7,3.1,35,0.00,,---,0.00,VWS V14.01,2013-05-06 02:25:00,
2013-05-05 22:30:00,66.9,38.2,29.77,SSE,164,0.0,2.7,35,0.00,,---,0.00,VWS V14.01,2013-05-06 02:30:00,
2013-05-05 22:35:00,66.9,38.2,29.77,SSE,155,0.0,2.7,35,0.00,,---,0.00,VWS V14.01,2013-05-06 02:35:00,
2013-05-05 22:40:00,66.9,38.2,29.77,SSE,148,3.1,3.1,35,0.00,,---,0.00,VWS V14.01,2013-05-06 02:40:00,
2013-05-05 22:45:00,66.9,38.2,29.80,SW,227,2.7,3.1,35,0.00,,---,0.00,VWS V14.01,2013-05-06 02:45:00,
2013-05-05 22:50:00,66.9,38.2,29.80,South,173,0.0,0.0,35,0.00,,---,0.00,VWS V14.01,2013-05-06 02:50:00,
2013-05-05 22:55:00,66.9,38.2,29.80,SSW,205,0.0,0.0,35,0.00,,---,0.00,VWS V14.01,2013-05-06 02:55:00,
2013-05-05 23:00:00,66.9,38.2,29.77,SSE,168,0.0,0.0,35,0.00,,---,0.00,VWS V14.01,2013-05-06 03:00:00,
2013-05-05 23:05:00,66.9,38.2,29.77,SSW,196,2.2,2.7,35,0.00,,---,0.00,VWS V14.01,2013-05-06 03:05:00,
2013-05-05 23:10:00,66.9,38.2,29.77,South,179,3.6,3.6,35,0.00,,---,0.00,VWS V14.01,2013-05-06 03:10:00,
2013-05-05 23:15:00,66.7,38.0,29.77,SSW,202,0.0,3.6,35,0.00,,---,0.00,VWS V14.01,2013-05-06 03:15:00,
2013-05-05 23:20:00,66.7,38.8,29.80,West,269,2.2,2.7,36,0.00,,---,0.00,VWS V14.01,2013-05-06 03:20:00,
2013-05-05 23:25:00,66.7,38.8,29.80,South,172,0.0,2.7,36,0.00,,---,0.00,VWS V14.01,2013-05-06 03:25:00,
2013-05-05 23:30:00,66.6,38.6,29.80,South,183,2.7,2.7,36,0.00,,---,0.00,VWS V14.01,2013-05-06 03:30:00,
2013-05-05 23:35:00,66.6,38.6,29.80,SSW,210,0.0,0.0,36,0.00,,---,0.00,VWS V14.01,2013-05-06 03:35:00,
2013-05-05 23:40:00,66.4,38.4,29.80,SSW,193,3.1,3.1,36,0.00,,---,0.00,VWS V14.01,2013-05-06 03:40:00,
2013-05-05 23:45:00,66.4,39.2,29.80,South,182,3.1,3.1,37,0.00,,---,0.00,VWS V14.01,2013-05-06 03:45:00,
2013-05-05 23:50:00,66.2,39.0,29.80,SSE,163,0.0,0.0,37,0.00,,---,0.00,VWS V14.01,2013-05-06 03:50:00,
2013-05-05 23:55:00,66.0,38.8,29.80,South,172,0.0,0.0,37,0.00,,---,0.00,VWS V14.01,2013-05-06 03:55:00,